OneWeb SL0405

operational
NORAD ID: 50485 Int'l Des: 2021-132 Owner: ONEWEBN Country: UK Constellation: oneweb
LEOCIRCULARPOLARONEWEB_TYPE

Über OneWeb SL0405

Beschreibung wird geladen...

Live-Position

3D-Globus wird geladen...

Nächste Überflüge

Höhenverlauf

Altitude vs Time

uPlot chart will show altitude changes over time

Zweizeiliger Elementsatz

1 50485U 21132S 26035.95561751 -.00000003 00000-0 -39578-4 0 9997
2 50485 87.9217 1.6865 0001752 73.8802 286.2522 13.18687380204566
Epoch: 4. Feb. 2026 • Age: 13 hours

Aktueller Status

Höhe 1202.1 km
Geschwindigkeit 7.26 km/s
Subsatellitenpunkt 82.89°N, 61.23°E
Startdatum 27. Dez. 2021
Alter 4.1 years
Typ internet

Technische Details

Klassifizierung Payload
Masse 148.00 kg
Trockenmasse 140.00 kg
Gesamtmasse 148.00 kg
Länge 1.30 m
Durchmesser 1.00 m
Spannweite 5.00 m
Form Trapezoid+2 pan
Hersteller ONEWUS
Bus-Typ ARROW
Phasenstatus In Orbit
Besitzer/Staat ONEWEBN/UK

Große Konstellationen

Loading constellations...